Change the Weather History Date:

Tuesday, February 4, 2014

  Actual Average (KRDG) Record (KRDG)
Temperature  
Mean Temperature 20 °F 30 °F  
Max Temperature 30 °F 39 °F 64 °F (1991)
Min Temperature 10 °F 22 °F -2 °F (1985)
Degree Days  
Heating Degree Days 45 35  
Month to date heating degree days 140  
Since 1 July heating degree days 3265  
Cooling Degree Days 0 0  
Month to date cooling degree days 0  
Year to date cooling degree days 0  
Moisture  
Dew Point 19 °F    
Average Humidity 84    
Maximum Humidity 100    
Minimum Humidity 66    
Precipitation  
Precipitation 0.00 in 0.08 in 1.47 in (1903)
Month to date precipitation 0.32  
Year to date precipitation 3.37  
Sea Level Pressure  
Sea Level Pressure 30.39 in    
Wind  
Wind Speed 1 mph (NNE)    
Max Wind Speed 7 mph    
Max Gust Speed -    
Visibility 10 miles    
Events Rain    
T = Trace of Precipitation, MM = Missing Value Source: NWS Daily Summary

Daily Weather History Graph

Daily Weather History Graph

Search for Another Location

Airport or City:

Trip Planner

Search our weather history database for the weather conditions in past years. The results will help you decide how hot, cold, wet, or windy it might be!

Date:

Astronomy

Feb. 04, 2014 Rise Set
Actual Time 7:08 AM EST 5:24 PM EST
Civil Twilight 6:39 AM EST 5:53 PM EST
Nautical Twilight 6:07 AM EST 6:25 PM EST
Astronomical Twilight 5:35 AM EST 6:57 PM EST
Moon 9:44 AM EST 11:16 PM EST
Length of Visible Light 11h 13m
Length of Day
10h 16m
Waxing Crescent, 29% of the Moon is Illuminated
Feb 4
Waxing Crescent
Feb 6
First Quarter
Feb 14
Full
Feb 22
Last Quarter
Mar 1
New

Hourly Weather History & Observations

Time (EST) Temp. Windchill Dew Point Humidity Pressure Visibility Wind Dir Wind Speed Gust Speed Precip Events Conditions
12:54 AM 19.0 °F - 16.0 °F 88% 30.36 in 10.0 mi Calm Calm - N/A   Clear
1:54 AM 17.1 °F - 15.1 °F 92% 30.38 in 10.0 mi Calm Calm - N/A   Clear
2:54 AM 14.0 °F - 12.9 °F 95% 30.39 in 9.0 mi Calm Calm - N/A   Clear
3:54 AM 14.0 °F 8.2 °F 12.9 °F 95% 30.41 in 10.0 mi WNW 3.5 mph - N/A   Clear
4:54 AM 15.1 °F - 12.0 °F 88% 30.40 in 10.0 mi Calm Calm - N/A   Clear
5:54 AM 10.0 °F 3.6 °F 10.0 °F 100% 30.42 in 10.0 mi WNW 3.5 mph - N/A   Clear
6:54 AM 12.9 °F - 10.0 °F 88% 30.43 in 10.0 mi Calm Calm - N/A   Clear
7:54 AM 12.9 °F - 10.9 °F 92% 30.47 in 8.0 mi Calm Calm - N/A   Clear
8:54 AM 19.0 °F - 18.0 °F 96% 30.48 in 10.0 mi Calm Calm - N/A   Clear
9:54 AM 24.1 °F 19.7 °F 17.1 °F 75% 30.48 in 10.0 mi NNE 3.5 mph - N/A   Clear
10:54 AM 26.1 °F 21.9 °F 17.1 °F 69% 30.48 in 10.0 mi North 3.5 mph - N/A   Clear
11:54 AM 28.0 °F - 19.0 °F 69% 30.45 in 10.0 mi Calm Calm - N/A   Clear
12:54 PM 28.0 °F 22.8 °F 19.0 °F 69% 30.45 in 10.0 mi West 4.6 mph - N/A   Clear
1:54 PM 30.0 °F 26.5 °F 19.9 °F 66% 30.41 in 10.0 mi North 3.5 mph - N/A   Clear
2:54 PM 30.0 °F 25.2 °F 21.0 °F 69% 30.39 in 10.0 mi Variable 4.6 mph - N/A   Clear
3:54 PM 30.0 °F - 21.0 °F 69% 30.37 in 10.0 mi Calm Calm - N/A   Clear
4:54 PM 28.0 °F - 21.0 °F 75% 30.38 in 10.0 mi Calm Calm - N/A   Clear
5:29 PM 27.0 °F - 23.0 °F 85% 30.38 in 10.0 mi Calm Calm - N/A   Mostly Cloudy
5:54 PM 27.0 °F - 24.1 °F 89% 30.38 in 10.0 mi Calm Calm - N/A   Mostly Cloudy
6:02 PM 26.1 °F - 24.1 °F 92% 30.37 in 10.0 mi Calm Calm - N/A   Scattered Clouds
6:54 PM 27.0 °F - 23.0 °F 85% 30.37 in 10.0 mi Calm Calm - N/A   Mostly Cloudy
7:54 PM 28.0 °F 24.2 °F 23.0 °F 81% 30.37 in 10.0 mi ENE 3.5 mph - N/A   Overcast
8:54 PM 28.9 °F - 24.1 °F 82% 30.34 in 10.0 mi Calm Calm - N/A   Overcast
9:22 PM 28.0 °F 22.8 °F 24.1 °F 85% 30.32 in 10.0 mi ENE 4.6 mph - N/A   Overcast
9:54 PM 28.0 °F 24.2 °F 25.0 °F 88% 30.31 in 10.0 mi ENE 3.5 mph - N/A   Overcast
10:54 PM 28.0 °F 20.8 °F 25.0 °F 88% 30.26 in 10.0 mi ENE 6.9 mph - N/A   Overcast
11:54 PM 28.9 °F 22.8 °F 26.1 °F 89% 30.23 in 4.0 mi NE 5.8 mph - 0.00 in Rain Light Freezing Rain